Date_and_time,latitude,longitude,wind_speed,RelWindDirFrom,WindDirFrom,air_pressure,air_temperature,relative_humidity,Temp,platform_speed_wrt_ground,air_pressure_at_mean_sea_level,platform_orientation
2019-11-24 00:00,50.6304366666667,-96.9807766666667,9.2,12.1,226,968.17,2.8,75,1.08,0.0,995.16,360.0
2019-11-24 00:10,50.6304366666667,-96.9807766666667,9.4,12.9,227,968.17,2.8,76,1.09,0.0,995.17,360.0
2019-11-24 00:20,50.6304366666667,-96.9807766666667,10.1,14.0,231,968.25,2.8,76,1.06,0.0,995.25,360.0
2019-11-24 00:30,50.6304366666667,-96.9807766666667,10.3,15.6,236,968.31,2.9,76,1.04,0.0,995.32,360.0
2019-11-24 00:40,50.630435,-96.980775,9.1,14.0,237,968.19,3.1,75,1.02,0.0,995.18,360.0
2019-11-24 00:50,50.6304366666667,-96.98078,8.3,11.6,240,968.23,3.1,75,1.01,0.0,995.22,360.0
2019-11-24 01:00,50.630435,-96.980785,8.6,12.6,238,968.28,3.1,75,1.02,0.0,995.27,323.4
2019-11-24 01:10,50.6304383333333,-96.98079,9.5,13.4,241,968.23,3.1,76,1.04,0.0,995.22,323.4
2019-11-24 01:20,50.6304383333333,-96.9807866666667,8.6,12.8,241,968.25,3.0,76,1.04,0.0,995.25,323.4
2019-11-24 01:30,50.6304366666667,-96.980785,9.2,14.4,240,968.20,2.9,76,1.03,0.0,995.21,323.4
2019-11-24 01:40,50.630435,-96.9807816666667,9.7,14.1,240,968.07,2.9,77,1.04,0.0,995.08,323.4
2019-11-24 01:50,50.630435,-96.98078,9.5,13.1,242,968.00,3.0,76,1.05,0.0,995.01,323.4
2019-11-24 02:00,50.6304366666667,-96.98078,8.9,13.1,247,968.02,3.2,76,1.05,0.0,995.03,270.0
2019-11-24 02:10,50.6304366666667,-96.9807816666667,9.3,13.9,248,968.05,3.4,75,1.02,0.0,995.05,270.0
2019-11-24 02:20,50.6304366666667,-96.9807816666667,10.1,14.6,255,968.17,3.7,73,1.00,0.0,995.15,270.0
2019-11-24 02:30,50.6304066666667,-96.98077,10.2,14.4,246,968.20,3.7,73,0.98,0.0,995.17,270.0
2019-11-24 02:40,50.63043,-96.9807733333333,10.6,16.1,245,968.15,3.7,73,0.95,0.0,995.12,270.0
2019-11-24 02:50,50.6304366666667,-96.9807766666667,10.8,15.2,247,968.24,4.0,72,0.94,0.0,995.20,270.0
2019-11-24 03:00,50.6304366666667,-96.9807716666667,11.9,16.2,246,968.26,4.0,72,0.94,0.0,995.22,0.0
2019-11-24 03:10,50.6304366666667,-96.98077,11.6,18.6,256,968.35,4.1,72,0.94,0.0,995.31,0.0
2019-11-24 03:20,50.6304533333333,-96.9808116666667,11.8,16.9,257,968.40,4.1,72,0.94,0.0,995.36,0.0
2019-11-24 03:30,50.6304533333333,-96.9807783333333,10.6,15.2,262,968.52,4.0,73,0.95,0.0,995.49,0.0
2019-11-24 03:40,50.6304483333333,-96.9807733333333,9.1,13.7,263,968.59,4.0,73,0.97,0.0,995.56,0.0
2019-11-24 03:50,50.6304483333333,-96.98077,9.0,13.5,264,968.55,4.0,73,0.98,0.0,995.51,0.0
2019-11-24 04:00,50.6304466666667,-96.9807733333333,7.8,12.2,260,968.53,3.9,73,0.99,0.0,995.49,36.6
2019-11-24 04:10,50.630445,-96.9807716666667,7.5,10.3,259,968.51,3.7,74,0.98,0.0,995.46,36.6
2019-11-24 04:20,50.630445,-96.98077,7.8,11.5,256,968.46,3.4,75,0.97,0.0,995.42,36.6
2019-11-24 04:30,50.630445,-96.9807716666667,8.4,12.2,256,968.42,3.2,76,0.97,0.0,995.39,36.6
2019-11-24 04:40,50.6304433333333,-96.9807733333333,8.0,12.5,259,968.30,3.3,76,0.98,0.0,995.25,36.6
2019-11-24 04:50,50.6304566666667,-96.9807983333333,8.6,13.1,261,968.32,3.4,76,0.98,0.0,995.26,36.6
2019-11-24 05:00,50.630435,-96.9807616666667,7.6,10.9,263,968.37,3.5,75,0.98,0.0,995.31,90.0
2019-11-24 05:10,50.6304433333333,-96.9807583333333,7.8,11.7,258,968.51,3.5,75,0.95,0.0,995.45,90.0
2019-11-24 05:20,50.6304466666667,-96.9807616666667,8.1,12.7,260,968.63,3.4,75,0.93,0.0,995.57,90.0
2019-11-24 05:30,50.630435,-96.98075,8.8,12.6,260,968.70,3.6,75,0.92,0.0,995.65,90.0
2019-11-24 05:40,50.6304383333333,-96.98076,9.7,14.9,263,968.63,3.9,74,0.91,0.0,995.56,90.0
2019-11-24 05:50,50.63044,-96.9807583333333,10.1,14.6,261,968.72,4.2,73,0.91,0.0,995.65,90.0
2019-11-24 06:00,50.63044,-96.9807583333333,8.8,12.9,261,968.89,4.1,73,0.92,0.0,995.83,54.7
2019-11-24 06:10,50.63044,-96.98076,9.1,13.7,260,968.98,4.1,73,0.94,0.0,995.93,54.7
2019-11-24 06:20,50.6304416666667,-96.98076,9.5,13.4,259,969.17,4.1,72,0.94,0.0,996.14,54.7
2019-11-24 06:30,50.6304416666667,-96.98076,8.9,14.6,257,969.23,4.0,73,0.95,0.0,996.21,54.7
2019-11-24 06:40,50.6304433333333,-96.9807616666667,8.1,11.6,257,969.30,3.6,74,0.95,0.0,996.29,54.7
2019-11-24 06:50,50.6304433333333,-96.9807616666667,8.3,11.5,260,969.28,3.7,74,0.93,0.0,996.27,54.7
2019-11-24 07:00,50.6304433333333,-96.9807633333333,7.4,12.1,267,969.24,3.8,73,0.92,0.0,996.21,167.4
2019-11-24 07:10,50.6304433333333,-96.9807633333333,8.3,13.1,258,969.25,3.8,73,0.93,0.0,996.23,167.4
2019-11-24 07:20,50.6304433333333,-96.9807633333333,7.4,12.9,256,969.30,3.7,74,0.93,0.0,996.28,167.4
2019-11-24 07:30,50.6304433333333,-96.980765,7.6,10.9,247,969.39,3.1,76,0.94,0.0,996.38,167.4
2019-11-24 07:40,50.6304516666667,-96.9807583333333,8.4,12.4,247,969.54,2.7,78,0.96,0.0,996.55,167.4
2019-11-24 07:50,50.6304483333333,-96.9807616666667,7.4,10.4,237,969.62,2.3,80,0.96,0.0,996.64,167.4
2019-11-24 08:00,50.630455,-96.9807916666667,8.4,11.4,239,969.76,1.5,84,0.94,0.0,996.83,305.8
2019-11-24 08:10,50.630455,-96.9807733333333,7.1,9.9,243,969.79,1.3,85,0.94,0.0,996.87,305.8
2019-11-24 08:20,50.63045,-96.9807733333333,7.0,9.9,253,969.92,1.2,86,0.94,0.0,997.02,305.8
2019-11-24 08:30,50.6304483333333,-96.9807766666667,6.5,9.6,249,970.05,1.0,87,0.94,0.0,997.17,305.8
2019-11-24 08:40,50.6304483333333,-96.980775,6.8,10.1,250,970.08,1.2,86,0.95,0.0,997.20,305.8
2019-11-24 08:50,50.6304466666667,-96.9807716666667,7.0,10.4,252,970.18,1.6,85,0.96,0.0,997.28,305.8
2019-11-24 09:00,50.630445,-96.9807716666667,8.1,12.8,257,970.18,1.9,84,0.96,0.0,997.26,270.0
2019-11-24 09:10,50.6304433333333,-96.9807716666667,7.8,10.4,257,970.21,2.0,82,0.95,0.0,997.29,270.0
2019-11-24 09:20,50.6304433333333,-96.9807716666667,7.3,11.2,252,970.20,1.9,83,0.94,0.0,997.31,270.0
2019-11-24 09:30,50.6304233333333,-96.980765,7.2,10.6,251,970.18,1.6,84,0.94,0.0,997.33,270.0
2019-11-24 09:40,50.6304266666667,-96.980765,7.1,9.9,252,970.21,1.5,84,0.94,0.0,997.38,270.0
2019-11-24 09:50,50.6304266666667,-96.9807683333333,6.7,8.8,249,970.23,1.3,85,0.93,0.0,997.45,270.0
2019-11-24 10:00,50.6304416666667,-96.9807766666667,5.9,8.5,253,970.15,1.0,86,0.93,0.0,997.39,270.0
2019-11-24 10:10,50.6304383333333,-96.9807766666667,6.1,8.6,256,970.09,0.9,87,0.92,0.0,997.35,270.0
2019-11-24 10:20,50.63044,-96.9807816666667,6.3,8.7,255,970.12,0.9,86,0.92,0.0,997.38,270.0
2019-11-24 10:30,50.630445,-96.9807833333333,6.9,10.7,248,970.18,0.7,87,0.93,0.0,997.45,270.0
2019-11-24 10:40,50.6304466666667,-96.9807766666667,7.1,10.1,253,970.19,0.7,87,0.99,0.0,997.44,270.0
2019-11-24 10:50,50.630445,-96.9807766666667,6.8,10.6,262,970.24,0.8,87,1.03,0.0,997.47,270.0
2019-11-24 11:00,50.630445,-96.9807783333333,6.0,9.7,267,970.24,0.9,86,1.06,0.0,997.45,165.5
2019-11-24 11:10,50.6304216666667,-96.9807766666667,6.1,8.6,267,970.26,0.9,86,1.06,0.0,997.49,165.5
2019-11-24 11:20,50.63043,-96.9807733333333,5.5,8.5,263,970.29,1.0,86,1.04,0.0,997.53,165.5
2019-11-24 11:30,50.6304316666667,-96.9807733333333,4.7,7.2,261,970.36,0.9,86,1.02,0.0,997.61,165.5
2019-11-24 11:40,50.63043,-96.9807666666667,4.7,6.1,245,970.37,0.8,86,1.01,0.0,997.63,165.5
2019-11-24 11:50,50.6304333333333,-96.98077,6.0,8.4,235,970.47,0.3,88,0.99,0.0,997.78,165.5
2019-11-24 12:00,50.63045,-96.98078,5.7,7.5,240,970.47,0.2,89,0.98,0.0,997.78,347.4
2019-11-24 12:10,50.6304383333333,-96.9807583333333,5.0,7.1,249,970.45,0.2,89,0.96,0.0,997.77,347.4
2019-11-24 12:20,50.6304316666667,-96.98076,4.9,6.3,249,970.41,0.0,90,0.94,0.0,997.74,347.4
2019-11-24 12:30,50.6304316666667,-96.9807633333333,5.6,8.4,255,970.43,-0.0,90,0.93,0.0,997.77,347.4
2019-11-24 12:40,50.6304266666667,-96.9807783333333,5.9,8.0,252,970.50,-0.3,91,0.93,0.0,997.84,347.4
2019-11-24 12:50,50.6304266666667,-96.9807783333333,5.3,7.8,256,970.48,-0.4,92,0.92,0.0,997.83,347.4
2019-11-24 13:00,50.6304333333333,-96.9807816666667,6.0,8.1,247,970.53,-0.6,92,0.92,0.0,997.89,228.3
2019-11-24 13:10,50.6304366666667,-96.9807716666667,5.7,7.3,252,970.55,-0.6,93,0.92,0.0,997.91,228.3
2019-11-24 13:20,50.6304383333333,-96.98077,6.6,8.4,245,970.51,-0.8,93,0.93,0.0,997.87,228.3
2019-11-24 13:30,50.63044,-96.9807683333333,6.7,8.6,242,970.58,-0.8,93,0.93,0.0,997.96,228.3
2019-11-24 13:40,50.6304416666667,-96.98077,6.9,9.1,244,970.58,-0.9,93,0.91,0.0,997.98,228.3
2019-11-24 13:50,50.6304416666667,-96.98077,7.3,9.9,242,970.62,-1.0,94,0.90,0.0,998.05,228.3
2019-11-24 14:00,50.6304416666667,-96.9807716666667,7.2,9.9,246,970.63,-1.1,94,0.90,0.0,998.06,90.0
2019-11-24 14:10,50.6304416666667,-96.9807733333333,7.0,9.6,246,970.61,-1.1,93,0.90,0.0,998.04,90.0
2019-11-24 14:20,50.6304416666667,-96.980775,6.7,8.4,249,970.60,-1.0,93,0.91,0.0,998.02,90.0
2019-11-24 14:30,50.6304366666667,-96.9807783333333,7.0,8.6,246,970.63,-0.9,92,0.93,0.0,998.07,90.0
2019-11-24 14:40,50.6304383333333,-96.9807783333333,6.0,8.0,253,970.66,-0.9,92,0.94,0.0,998.11,90.0
2019-11-24 14:50,50.6304433333333,-96.980775,5.9,8.6,257,970.70,-0.8,92,0.93,0.0,998.15,90.0
2019-11-24 15:00,50.630445,-96.9807716666667,6.1,8.3,256,970.77,-0.8,92,0.93,0.0,998.22,167.4
2019-11-24 15:10,50.6304433333333,-96.9807683333333,6.5,8.4,258,970.82,-0.4,91,0.92,0.0,998.26,167.4
2019-11-24 15:20,50.6304416666667,-96.98077,5.3,7.2,257,970.80,-0.3,91,0.92,0.0,998.24,167.4
2019-11-24 15:30,50.6304416666667,-96.98077,6.1,8.6,262,970.78,-0.0,90,0.90,0.0,998.21,167.4
2019-11-24 15:40,50.63044,-96.98077,5.8,8.0,253,970.93,0.3,88,0.90,0.0,998.35,167.4
2019-11-24 15:50,50.6304333333333,-96.9807883333333,5.1,7.2,257,970.83,0.4,88,0.90,0.0,998.25,167.4
2019-11-24 16:00,50.630435,-96.9807816666667,5.7,8.0,256,970.86,0.7,87,0.91,0.0,998.26,38.0
2019-11-24 16:10,50.6304266666667,-96.98077,5.1,7.0,259,970.95,0.8,86,0.91,0.0,998.35,38.0
2019-11-24 16:20,50.63043,-96.9807766666667,4.9,6.6,261,971.03,1.0,85,0.91,0.0,998.42,38.0
2019-11-24 16:30,50.6304316666667,-96.980775,5.2,7.2,255,971.07,1.1,84,0.91,0.0,998.45,38.0
2019-11-24 16:40,50.6304333333333,-96.980775,5.3,7.5,255,971.08,1.2,83,0.90,0.0,998.45,38.0
2019-11-24 16:50,50.6304316666667,-96.9807733333333,5.1,6.6,261,971.03,1.5,81,0.90,0.0,998.37,38.0
2019-11-24 17:00,50.630435,-96.9807733333333,4.7,7.3,273,970.90,2.0,79,0.90,0.0,998.20,142.0
2019-11-24 17:10,50.6304366666667,-96.980775,4.5,7.0,292,970.84,2.5,77,0.90,0.0,998.11,142.0
2019-11-24 17:20,50.6304416666667,-96.9807766666667,3.8,6.1,296,970.71,2.8,76,0.92,0.0,997.95,142.0
2019-11-24 17:30,50.6304416666667,-96.98077,2.7,4.5,309,970.58,3.4,72,0.93,0.0,997.77,142.0
2019-11-24 17:40,50.63044,-96.9807683333333,1.7,2.8,330,970.43,4.2,68,0.93,0.0,997.57,142.0
2019-11-24 17:50,50.63044,-96.9807716666667,0.6,1.4,53,970.29,5.2,65,0.95,0.0,997.36,142.0
2019-11-24 18:00,50.630445,-96.9807683333333,2.1,3.3,61,970.17,5.4,66,0.95,0.0,997.22,90.0
2019-11-24 18:10,50.6304433333333,-96.980765,2.7,3.2,81,970.05,5.2,66,0.94,0.0,997.10,90.0
2019-11-24 18:20,50.6304383333333,-96.98077,3.3,4.2,90,969.87,5.2,68,0.95,0.0,996.91,90.0
2019-11-24 18:30,50.63044,-96.9807666666667,2.7,3.4,88,969.85,4.7,68,0.95,0.0,996.90,90.0
2019-11-24 18:40,50.6304383333333,-96.9807683333333,4.1,5.7,98,969.80,4.8,72,0.95,0.0,996.84,90.0
2019-11-24 18:50,50.6304383333333,-96.980765,5.9,8.0,112,969.81,3.3,84,0.96,0.0,996.90,90.0
2019-11-24 19:00,50.6304383333333,-96.9807683333333,6.6,8.5,115,969.74,2.2,91,0.96,0.0,996.86,66.4
2019-11-24 19:10,50.6304383333333,-96.98077,6.5,7.9,118,969.60,2.1,91,0.96,0.0,996.70,66.4
2019-11-24 19:20,50.6304416666667,-96.9807716666667,6.5,7.5,120,969.49,1.9,93,0.96,0.0,996.57,66.4
2019-11-24 19:30,50.6304416666667,-96.9807716666667,5.9,7.7,133,969.37,1.6,95,0.97,0.0,996.41,66.4
2019-11-24 19:40,50.6304583333333,-96.98075,6.1,8.0,140,969.22,1.2,96,0.96,0.0,996.24,66.4
2019-11-24 19:50,50.6304316666667,-96.9807766666667,4.3,6.2,141,969.16,0.9,98,0.95,0.0,996.18,66.4
2019-11-24 20:00,50.6304316666667,-96.9807716666667,5.0,7.3,155,969.13,0.7,99,0.95,0.0,996.17,142.0
2019-11-24 20:10,50.6304283333333,-96.9807766666667,5.9,7.2,157,969.08,0.7,99,0.96,0.0,996.12,142.0
2019-11-24 20:20,50.6304283333333,-96.9807716666667,5.2,6.4,148,969.04,0.6,99,1.00,0.0,996.10,142.0
2019-11-24 20:30,50.63043,-96.9807716666667,3.8,4.5,149,969.03,1.1,96,1.03,0.0,996.07,142.0
2019-11-24 20:40,50.63043,-96.98077,4.3,4.8,153,969.01,1.1,95,1.04,0.0,996.12,142.0
2019-11-24 20:50,50.63043,-96.9807716666667,4.5,5.1,153,968.99,0.6,97,1.04,0.0,996.18,142.0
2019-11-24 21:00,50.6304316666667,-96.98077,4.9,5.8,153,968.88,0.2,98,1.04,0.0,996.09,142.0
2019-11-24 21:10,50.6304316666667,-96.98077,4.0,4.5,150,968.72,0.3,96,1.05,0.0,995.93,142.0
2019-11-24 21:20,50.6304316666667,-96.98077,3.1,3.8,119,968.59,1.3,93,1.06,0.0,995.76,142.0
2019-11-24 21:30,50.6304316666667,-96.9807683333333,2.4,3.0,89,968.49,2.5,89,1.06,0.0,995.63,142.0
2019-11-24 21:40,50.6304383333333,-96.980765,2.2,2.7,99,968.44,1.9,96,1.07,0.0,995.62,142.0
2019-11-24 21:50,50.63044,-96.980765,0.7,2.3,127,968.46,1.4,96,1.11,0.0,995.67,142.0
2019-11-24 22:00,50.63044,-96.9807616666667,2.6,3.9,50,968.36,0.9,99,1.15,0.0,995.59,90.0
2019-11-24 22:10,50.63044,-96.9807633333333,3.6,4.5,49,968.23,0.4,99,1.13,0.0,995.49,90.0
2019-11-24 22:20,50.6304416666667,-96.980765,4.2,5.1,48,968.22,0.3,99,1.10,0.0,995.46,90.0
2019-11-24 22:30,50.6304433333333,-96.980765,3.1,4.0,57,968.34,0.2,100,1.08,0.0,995.58,90.0
2019-11-24 22:40,50.6304433333333,-96.980765,1.9,2.9,91,968.30,0.4,100,1.07,0.0,995.56,90.0
2019-11-24 22:50,50.6304433333333,-96.9807666666667,1.9,2.5,120,968.23,0.5,99,1.06,0.0,995.51,90.0
2019-11-24 23:00,50.630445,-96.9807666666667,1.8,2.7,145,968.22,-0.1,100,1.06,0.0,995.52,41.3
2019-11-24 23:10,50.630445,-96.9807683333333,2.1,2.8,131,968.15,0.2,100,1.07,0.0,995.38,41.3
2019-11-24 23:20,50.630445,-96.9807683333333,1.8,2.3,111,968.21,0.6,99,1.08,0.0,995.37,41.3
2019-11-24 23:30,50.630445,-96.9807683333333,1.6,2.2,108,968.19,0.7,99,1.12,0.0,995.37,41.3
2019-11-24 23:40,50.630445,-96.9807683333333,1.6,2.7,110,968.16,0.8,99,1.16,0.0,995.36,41.3
